Location: Poughquag
(41.6090°N, 73.6820°W)
Time: 20:51:32
(UTC-04:00)

N. Korean satellite - Visible Passes

Search period start: 29 March 2017 00:00
Search period end: 08 April 2017 00:00
Orbit: 461 x 520 km, 97.2° (Epoch: 28 March)

Date Brightness Start Highest point End Pass type
(mag) Time Alt. Az. Time Alt. Az. Time Alt. Az.
30 Mar 9.9 20:20:00 10° WSW 20:21:39 13° W 20:23:18 10° WNW visible
31 Mar 9.2 19:56:01 10° SSW 19:58:56 24° W 20:01:49 10° NW visible
03 Apr 10.0 20:23:40 10° WSW 20:24:52 11° W 20:26:03 10° WNW visible
04 Apr 9.4 19:59:21 10° SSW 20:02:06 21° W 20:04:50 10° NW visible
07 Apr 10.3 20:27:35 10° W 20:27:57 10° W 20:28:19 10° W visible
